Location: Limerick
(52.6650°N, 8.6230°W)
Time: 23:41:55
(UTC+01:00)

ISS - Pass Details

Date: 23 July 2017
Orbit: 400 x 408 km, 51.6° (Epoch: 24 July)

Event Time Altitude Azimuth Distance (km) Brightness Sun altitude
Rises 00:47:13 0° 247° (WSW) 2,307 -0.1 -16.3°
Reaches altitude 10° 00:49:18 10° 242° (WSW) 1,450 -1.2 -16.4°
Maximum altitude 00:52:29 54° 164° (SSE) 493 -3.8 -16.5°
Drops below altitude 10° 00:55:41 10° 86° (E) 1,456 -1.1 -16.6°
Sets 00:57:47 0° 82° (E) 2,317 0.0 -16.7°
